Location: North Evanston
(42.0634°N, 87.6976°W)
Time: 12:09:37
(UTC+00:00)

Vanguard 2 Rocket - Pass Details

Date: 17 May 2026
Orbit: 553 x 3286 km, 32.9° (Epoch: 11 June)

Event Time Altitude Azimuth Distance (km) Brightness Sun altitude
Rises 19:46:20 0° 271° (W) 6,055 11.5 56.2°
Reaches altitude 10° 19:49:57 10° 267° (W) 5,335 11.5 55.6°
Maximum altitude 20:06:38 57° 195° (SSW) 3,600 11.3 52.9°
Drops below altitude 10° 20:25:38 10° 124° (ESE) 5,977 10.9 49.7°
Sets 20:29:59 0° 120° (ESE) 6,791 11.1 48.9°
